Station PKBW3 - Pokegama Bay, Lake Superior Reserve, WI Image indicating link to RSS feed of recent meteorological observations for station PKBW3


Conditions at PKBW3 as of
(10:00 am CDT)
1500 GMT on 09/04/2026:
     

Click on the graph icon in the table below to see a time series plot of the last five days of that observation.

5-day plot - Wind Direction Wind Direction (WDIR): E ( 80 deg true )
5-day plot - Wind Speed Wind Speed (WSPD): 4.1 kts
5-day plot - Atmospheric Pressure Atmospheric Pressure (PRES):29.94 in
5-day plot - Pressure Tendency Pressure Tendency (PTDY):+0.06 in ( Rising )
5-day plot - Air Temperature Air Temperature (ATMP): 61.5 °F
5-day plot - Wind Speed at 10 Meters Wind Speed at 10 meters (WSPD10M): 3.9 kts
5-day plot - Wind Speed at 20 Meters Wind Speed at 20 meters (WSPD20M): 5.8 kts
5-day plot -  Wind Speed, Wind Gust and Atmospheric Pressure Combined plot of Wind Speed, Gust, and Air Pressure
Previous observations
TIME
(CDT)
5-day plot - Wind Direction
WDIR
 
5-day plot - Wind Speed
WSPD
kts
5-day plot - Wind Gust
GST
kts
5-day plot - Wave Height
WVHT
ft
5-day plot - Dominant Wave Period
DPD
sec
5-day plot - Average Wave Period
APD
sec
5-day plot - Mean Wave Direction
MWD
 
5-day plot - Atmospheric Pressure
PRES
in
5-day plot - Pressure Tendency
PTDY
in
5-day plot - Air Temperature
ATMP
°F
5-day plot - Water Temperature
WTMP
°F
5-day plot - Dew Point
DEWP
°F
5-day plot - Salinity
SAL
psu
5-day plot - Visibility
VIS
nmi
5-day plot - Tide (above MLLW)
TIDE
ft
2026-09-04 09:45 amENE 4.1-----29.94- 61.5-----
2026-09-04 09:30 amENE 4.1-----29.94- 61.5-----
2026-09-04 09:15 amENE 4.1-----29.91- 61.7-----
2026-09-04 09:00 amENE 4.1-----29.91+0.03 61.7-----
2026-09-04 08:45 amENE 5.1-----29.91- 61.7-----
2026-09-04 08:30 amENE 2.9-----29.91- 61.7-----
2026-09-04 08:15 amENE 2.9-----29.91- 61.3-----
2026-09-04 08:00 amENE 2.9-----29.91+0.06 61.2-----
2026-09-04 07:45 amENE 2.9-----29.88- 61.0-----
2026-09-04 07:30 amENE 4.1-----29.88- 61.0-----
2026-09-04 07:15 amENE 2.9-----29.88- 60.8-----
2026-09-04 07:00 amENE 2.9-----29.88+0.00 60.6-----
2026-09-04 06:45 am E 4.1-----29.88- 60.6-----
2026-09-04 06:30 am E 4.1-----29.88- 60.8-----
2026-09-04 06:15 am E 2.9-----29.88- 60.8-----
2026-09-04 06:00 am E 2.9-----29.88+0.00 60.8- 60.8---
2026-09-04 05:45 amENE 2.9-----29.88- 60.4- 60.4---
2026-09-04 05:30 am E 1.9-----29.88- 60.4- 60.4---
2026-09-04 05:15 amENE 2.9-----29.85- 60.4- 60.1---
2026-09-04 05:00 amENE 2.9-----29.85-0.03 60.6- 60.3---
2026-09-04 04:45 am E 2.9-----29.85- 60.8- 60.3---
2026-09-04 04:30 am E 2.9-----29.88- 61.0- 60.6---
2026-09-04 04:15 am E 2.9-----29.88- 61.0- 60.6---
2026-09-04 04:00 amENE 2.9-----29.88+0.00 61.0-----
2026-09-04 03:45 amENE 2.9-----29.88- 61.2-----
2026-09-04 03:30 am NE 2.9-----29.88- 61.2-----
2026-09-04 03:15 amESE 1.9-----29.88- 61.3-----
2026-09-04 03:00 am S 6.0-----29.88-0.03 61.5-----
2026-09-04 02:45 am N 4.1-----29.91- 61.7- 61.3---
2026-09-04 02:30 am N 5.1-----29.91- 62.2- 61.2---
2026-09-04 02:15 am N 6.0-----29.91- 61.3- 60.8---
2026-09-04 02:00 amENE 2.9-----29.88-0.03 61.0- 60.4---
2026-09-04 01:45 amENE 4.1-----29.88- 61.2- 60.6---
2026-09-04 01:30 am NE 4.1-----29.88- 61.5- 61.2---
2026-09-04 01:15 amENE 1.9-----29.88- 61.7- 61.2---
2026-09-04 01:00 amENE 4.1-----29.88-0.03 61.7- 61.2---
2026-09-04 12:45 amENE 2.9-----29.88- 61.9- 61.0---
2026-09-04 12:30 am E 4.1-----29.88- 61.9- 61.0---
2026-09-04 12:15 amENE 4.1-----29.91- 61.9- 60.8---
2026-09-04 12:00 am E 5.1-----29.91+0.03 61.9- 60.4---
2026-09-03 11:45 pm E 4.1-----29.91- 61.7- 60.6---
2026-09-03 11:30 pm E 5.1-----29.91- 61.7- 60.8---
2026-09-03 11:15 pm E 5.1-----29.91- 61.9- 61.0---
2026-09-03 11:00 pm E 4.1-----29.91+0.03 61.9- 61.3---
2026-09-03 10:45 pmENE 4.1-----29.91- 61.9- 61.5---
2026-09-03 10:30 pmENE 4.1-----29.91- 61.9- 61.9---
2026-09-03 10:15 pmENE 4.1-----29.91- 62.2- 61.9---
2026-09-03 10:00 pmENE 5.1-----29.91+0.06 62.6- 62.1---
2026-09-03 09:45 pm NE 5.1-----29.91- 62.4- 61.9---
2026-09-03 09:30 pmNNE 6.0------- 63.0- 61.9---
2026-09-03 09:15 pm N 5.1-----29.91- 63.9- 61.5---
2026-09-03 09:00 pmENE 4.1-----29.88+0.03 64.0- 61.2---
2026-09-03 08:45 pmENE 5.1-----29.88- 64.0- 61.2---
2026-09-03 08:30 pmENE 5.1-----29.85- 64.0- 61.3---
2026-09-03 08:15 pmENE 4.1-----29.85- 63.9- 61.5---
2026-09-03 08:00 pmENE 5.1-----29.88+0.03 63.9- 61.5---
2026-09-03 07:45 pmENE 5.1-----29.88- 64.0- 61.3---
2026-09-03 07:30 pmENE 4.1-----29.88- 64.2- 61.3---
2026-09-03 07:15 pmENE 5.1-----29.85- 64.4- 61.5---
2026-09-03 07:00 pmENE 5.1-----29.85+0.00 64.4- 61.2---
2026-09-03 06:45 pmENE 6.0-----29.85- 64.6- 61.3---
2026-09-03 06:30 pmENE 5.1-----29.85- 64.6- 61.3---
2026-09-03 06:15 pmENE 5.1-----29.85- 64.9- 61.3---
2026-09-03 06:00 pmENE 7.0-----29.85-0.03 65.5- 61.3---
2026-09-03 05:45 pmENE 6.0-----29.85- 66.2- 61.3---
2026-09-03 05:30 pmENE 7.0-----29.85- 66.6- 61.3---
2026-09-03 05:15 pmENE 7.0-----29.85- 66.6- 61.7---
2026-09-03 05:00 pmENE 7.0-----29.85-0.03 66.6- 61.7---
2026-09-03 04:45 pm E 8.0-----29.85- 67.1- 61.9---
2026-09-03 04:30 pmENE 7.0-----29.85- 67.5- 61.9---
2026-09-03 04:15 pmENE 6.0-----29.85- 67.5- 62.2---
2026-09-03 04:00 pmENE 6.0-----29.85-0.06 67.3- 61.7---
2026-09-03 03:45 pmENE 7.0-----29.85- 68.0- 62.1---
2026-09-03 03:30 pmENE 7.0-----29.85- 68.2- 62.2---
2026-09-03 03:15 pm E 6.0-----29.88- 68.5- 62.2---
2026-09-03 03:00 pmENE 6.0-----29.88-0.03 68.5- 62.6---
2026-09-03 02:45 pmENE 7.0-----29.88- 67.6- 62.4---
2026-09-03 02:30 pmENE 5.1-----29.88- 67.6- 62.4---
2026-09-03 02:15 pmENE 5.1-----29.88- 66.9- 62.1---
2026-09-03 02:00 pmENE 6.0-----29.88-0.03 67.5- 62.2---
2026-09-03 01:45 pmENE 6.0-----29.88- 68.0- 62.4---
2026-09-03 01:30 pmENE 6.0-----29.88- 67.8- 62.6---
2026-09-03 01:15 pm E 6.0-----29.88- 68.5- 63.0---
2026-09-03 01:00 pm E 6.0-----29.91+0.00 67.8- 63.0---
2026-09-03 12:45 pm E 6.0-----29.91- 67.6- 62.4---
2026-09-03 12:30 pm E 6.0-----29.91- 68.0- 62.8---
2026-09-03 12:15 pmENE 6.0-----29.91- 68.2- 63.0---
2026-09-03 12:00 pm E 6.0-----29.91-0.03 67.5- 63.0---
2026-09-03 11:45 am E 5.1-----29.91- 66.7- 62.4---
2026-09-03 11:30 am E 4.1-----29.91- 66.0- 62.1---
2026-09-03 11:15 amENE 5.1-----29.91- 66.0- 62.1---
2026-09-03 11:00 amENE 6.0-----29.91-0.03 66.7- 62.2---
2026-09-03 10:45 am E 5.1-----29.91- 67.1- 62.6---
2026-09-03 10:30 am E 5.1-----29.91- 66.6- 62.2---
2026-09-03 10:15 amENE 5.1-----29.91- 65.8- 61.9---
2026-09-03 10:00 amENE 5.1-----29.91+0.00 66.4- 62.2---